Location: Fort Wayne
(41.1310°N, 85.1290°W)
Time: 09:34:55
(UTC-04:00)

SR - Visible Passes

Search period start: 01 July 2016 00:00
Search period end: 11 July 2016 00:00
Orbit: 583 x 875 km, 66.7° (Epoch: 30 June)

Date Brightness Start Highest point End Pass type
(mag) Time Alt. Az. Time Alt. Az. Time Alt. Az.
05 Jul ? 05:38:17 10° SE 05:40:48 14° ESE 05:43:15 10° ENE visible
07 Jul ? 05:39:41 10° SSE 05:44:00 27° ESE 05:48:02 10° NE visible
08 Jul ? 04:52:43 10° SE 04:54:59 13° ESE 04:57:11 10° E visible
09 Jul ? 05:42:17 10° S 05:47:18 53° ESE 05:51:55 10° NE visible
10 Jul ? 04:53:57 10° SSE 04:58:09 26° ESE 05:02:06 10° NE visible
